sat.trackr.live / text

‹ back to catalog

STARLINK-36635

NORAD 67601 · 2026-018N

PAYLOAD ACTIVE UNKNOWN

§ Identity

Operator
Country
US
Launch date
2026-01-29
Launch site
AFWTR
Launch vehicle
Mass (kg)
RCS (m²)

Purposes: comms

External: N2YO · Heavens-Above · Gunter

§ Orbital elements

Epoch: 2026-09-19T22:02:32.341632Z

Period
93.91 min
Inclination
97.2851°
Eccentricity
0.0000390
Mean motion
15.33456679 rev/d
Perigee alt
465.2 km
Apogee alt
465.8 km
Semi-major
6,843.6 km
B*
4.6403e-4
RAAN
326.4229°
Arg perigee
156.3795°
Mean anomaly
203.7466°
Rev number
3,710

§ Raw data

STARLINK-366351 67601U 26018N   26262.91842988  .00014940  00000+0  46403-3 0  99912 67601  97.2851 326.4229 0000390 156.3795 203.7466 15.33456679 37108

JSON: /api/v1/satellites/67601 · /tle

For live sub-satellite position, see the globe view (requires WebGL).

§ Visibility from observer

Set your observer location to see the next 7 days of passes ≥ 10°. The values pass through the URL so the page stays shareable.

No JS? Fill the form by hand. The geolocation button needs JavaScript.